11. August 2022

Uhrzeit Code Wetter Temp. Sichtweite Wolkendecke Wind METAR/SPECI
05:20
V
13 °C 9 km - 050° 050° 3 kt METAR ETHL 110320Z AUTO 05003KT 9000 // ////// 13/07 Q1021 ///
04:20
V
13 °C 8 km - 050° 050° 3 kt METAR ETHL 110220Z AUTO 05003KT 8000 // ////// 13/08 Q1021 ///
03:20
V
14 °C 9 km - 040° 040° 3 kt METAR ETHL 110120Z AUTO 04003KT 9000 // ////// 14/08 Q1021 ///
02:20
V
14 °C 9 km - 050° 050° 5 kt METAR ETHL 110020Z AUTO 05005KT 9000 // ////// 14/07 Q1022 ///
01:20
V
16 °C 10 km+ - 070° 070° 5 kt METAR ETHL 102320Z AUTO 07005KT 9999 // ////// 16/08 Q1022 ///
00:20
V
17 °C 10 km+ - 080° 080° 6 kt METAR ETHL 102220Z AUTO 08006KT 9999 // ////// 17/08 Q1022 ///

10. August 2022

Uhrzeit Code Wetter Temp. Sichtweite Wolkendecke Wind METAR/SPECI
23:20
V
17 °C 10 km+ - 070° 070° 5 kt METAR ETHL 102120Z 07005KT 9999 17/07 Q1022 BLU+
22:20
V
19 °C 10 km+ - 070° 070° 6 kt METAR ETHL 102020Z 07006KT 9999 19/07 Q1022 BLU+
21:20
V
21 °C 10 km+ - 080° 080° 5 kt METAR ETHL 101920Z 08005KT 9999 FEW300 21/07 Q1022 BLU+
20:20
V
23 °C 10 km+ - 090° 090° 7 kt METAR ETHL 101820Z 09007KT 9999 FEW300 23/06 Q1022 BLU+
19:20
V
25 °C 10 km+ - 080° 080° 11 kt METAR ETHL 101720Z 08011KT 9999 FEW300 25/05 Q1021 BLU+
18:20
V
25 °C 10 km+ - 080° 080° 13 kt METAR ETHL 101620Z 08013KT 9999 FEW070 25/06 Q1022 BLU+
17:20
V
25 °C 10 km+ - 080° 080° 14 kt METAR ETHL 101520Z 08014KT 9999 FEW070 25/06 Q1022 BLU+
17:00
V
25 °C 10 km+ - 070° 070° 12 kt METAR ETHL 101500Z 07012KT 9999 FEW070 25/06 Q1022 BLU+FCST CANCEL
16:20
V
25 °C 10 km+ - 080° 080° 13 kt METAR ETHL 101420Z 08013KT 9999 FEW070 25/06 Q1022 BLU+BLU+
15:20
V
25 °C 10 km+ - 070° 070° 13 kt METAR ETHL 101320Z 07013KT 9999 FEW070 25/06 Q1023 BLU+BLU+
14:20
V
25 °C 10 km+ - 090° 090° 17 kt METAR ETHL 101220Z 09017KT 9999 FEW070 25/06 Q1023 BLU+BLU+
13:20
V
24 °C 10 km+ - 080° 080° 18 kt METAR ETHL 101120Z 08018KT 9999 FEW060 24/06 Q1023 BLU+BLU+
12:20
V
24 °C 10 km+ - 070° 070° 18 kt METAR ETHL 101020Z 07018KT 9999 FEW060 24/07 Q1023 BLU+BLU+
11:20
V
23 °C 10 km+ - 070° 070° 17 kt METAR ETHL 100920Z 07017KT 9999 FEW060 23/09 Q1023 BLU+BLU+
10:20
V
21 °C 10 km+ - 070° 070° 13 kt METAR ETHL 100820Z 07013KT 9999 FEW300 21/09 Q1024 BLU+BLU+
09:20
V
19 °C 10 km+ - 070° 070° 10 kt METAR ETHL 100720Z 07010KT 9999 FEW300 19/09 Q1024 BLU+BLU+
08:20
V
17 °C 10 km+ - 060° 060° 7 kt METAR ETHL 100620Z 06007KT 9999 FEW300 17/10 Q1024 BLU+BLU+
07:20
V
14 °C 10 km+ - 060° 060° 6 kt METAR ETHL 100520Z 06006KT 9999 FEW300 14/10 Q1024 BLU+BLU+
06:20
V
12 °C 10 km+ - 040° 040° 4 kt METAR ETHL 100420Z 04004KT 9999 FEW300 12/09 Q1024 BLU+BLU+
05:20
V
13 °C 9 km - 050° 050° 4 kt METAR ETHL 100320Z AUTO 05004KT 9000 // ////// 13/09 Q1024 ///
04:20
V
13 °C 9 km - 040° 040° 4 kt METAR ETHL 100220Z AUTO 04004KT 9000 // ////// 13/09 Q1024 ///
03:20
V
14 °C 10 km+ - 050° 050° 4 kt METAR ETHL 100120Z AUTO 05004KT 9999 // ////// 14/09 Q1024 ///
02:20
V
16 °C 10 km+ - 080° 080° 1 kt METAR ETHL 100020Z AUTO 08001KT 9999 // ////// 16/09 Q1024 ///
01:20
V
15 °C 10 km+ - 040° 040° 3 kt METAR ETHL 092320Z AUTO 04003KT 9999 // ////// 15/09 Q1024 ///
00:20
V
18 °C 10 km+ - 080° 080° 4 kt METAR ETHL 092220Z AUTO 08004KT 9999 // ////// 18/09 Q1024 ///

9. August 2022

Uhrzeit Code Wetter Temp. Sichtweite Wolkendecke Wind METAR/SPECI
23:46
V
18 °C 10 km+ - 080° 080° 4 kt METAR ETHL 092146Z 08004KT 9999 18/09 Q1024 BLU+FCST CNL
23:20
V
19 °C 10 km+ - 090° 090° 3 kt METAR ETHL 092120Z 09003KT 9999 19/09 Q1024 BLU+BLU+
22:20
V
20 °C 10 km+ - 100° 100° 5 kt METAR ETHL 092020Z 10005KT 9999 20/09 Q1024 BLU+BLU+
21:20
V
21 °C 10 km+ - 110° 110° 5 kt METAR ETHL 091920Z 11005KT 9999 FEW120 21/09 Q1024 BLU+BLU+
20:20
V
22 °C 10 km+ - 070° 070° 6 kt METAR ETHL 091820Z 07006KT 9999 FEW060 22/09 Q1024 BLU+BLU+
19:20
V
25 °C 10 km+ - 090° 090° 8 kt METAR ETHL 091720Z 09008KT 9999 FEW060 25/08 Q1023 BLU+BLU+
18:20
V
25 °C 10 km+ - 100° 100° 11 kt METAR ETHL 091620Z 10011KT 9999 FEW060 25/07 Q1023 BLU+BLU+
17:20
V
26 °C 10 km+ - 080° 080° 12 kt METAR ETHL 091520Z 08012KT 9999 FEW060 26/08 Q1023 BLU+BLU+
16:20
V
26 °C 10 km+ - 090° 090° 10 kt METAR ETHL 091420Z 09010KT 9999 FEW060 26/07 Q1024 BLU+BLU+
15:20
V
25 °C 10 km+ - 070° 070° 8 kt METAR ETHL 091320Z 07008KT 9999 FEW060 25/08 Q1024 BLU+BLU+
14:20
V
25 °C 10 km+ - 070° 070° 11 kt METAR ETHL 091220Z 07011KT 9999 FEW050 25/08 Q1024 BLU+BLU+
13:20
V
24 °C 10 km+ - 060° 060° 12 kt METAR ETHL 091120Z 06012KT 9999 FEW050 24/08 Q1024 BLU+BLU+
12:20
V
24 °C 10 km+ - 080° 080° 14 kt METAR ETHL 091020Z 08014KT 9999 FEW050 24/10 Q1025 BLU+BLU+
11:20
V
23 °C 10 km+ - 070° 070° 13 kt METAR ETHL 090920Z 07013KT 9999 FEW050 23/10 Q1025 BLU+BLU+
10:20
V
21 °C 10 km+ - 070° 070° 9 kt METAR ETHL 090820Z 07009KT 9999 21/11 Q1025 BLU+BLU+
09:20
V
19 °C 10 km+ - 080° 080° 7 kt METAR ETHL 090720Z 08007KT 9999 19/11 Q1025 BLU+BLU+
08:20
V
16 °C 10 km+ - 050° 050° 8 kt METAR ETHL 090620Z 05008KT 9999 16/10 Q1024 BLU+BLU+
07:20
V
14 °C 10 km+ - 040° 040° 4 kt METAR ETHL 090520Z 04004KT 9999 14/10 Q1024 BLU+BLU+
06:20
V
13 °C 10 km+ - 040° 040° 2 kt METAR ETHL 090420Z 04002KT 9999 13/10 Q1023 BLU+BLU+
05:20
V
13 °C 10 km+ - 040° 040° 3 kt METAR ETHL 090320Z AUTO 04003KT 9999 // ////// 13/09 Q1023 ///
04:20
V
14 °C 9 km - 070° 070° 3 kt METAR ETHL 090220Z AUTO 07003KT 9000 // ////// 14/10 Q1023 ///
03:20
V
14 °C 8 km - 040° 040° 2 kt METAR ETHL 090120Z AUTO 04002KT 8000 // ////// 14/11 Q1023 ///
02:20
V
14 °C 10 km+ - 050° 050° 1 kt METAR ETHL 090020Z AUTO 05001KT 9999 // ////// 14/11 Q1023 ///
Ältere Daten

Wir und Dritte verfolgen dein Internetverhalten auf unserer Website mit Cookies. Wenn du fortfährst, gehen wir davon aus, dass du mit unserer Cookie-Richtlinie einverstanden bist. Mehr erfahren